date,time,DOY,Ta_1_1_1,RH_1_1_1,LWin_1_1_1,LWout_1_1_1,SWin_1_1_1,SWout_1_1_1,PPFD_1_1_1,SWC_1_1_1,Ts_1_1_1
[yyyy-mm-dd],[HH:MM],[ddd.ddd],[K],[%],[W+1m-2],[W+1m-2],[W+1m-2],[W+1m-2],[µmol+1m-2s-1],[m+3m-3],[K]
2013-01-09,00:30,9.020,273.01900000000006,82.158000000000030,-5.6189999999999998,-9999.0,-0.18266666666666664,-0.53033333333333343,4.66666666666666705E-003,-9999.0,279.90999999999991
2013-01-09,01:00,9.041,273.06100000000004,82.084666666666678,-5.2660000000000009,-9999.0,-0.20566666666666666,-0.53166666666666662,1.00000000000000002E-003,-9999.0,279.90999999999991
2013-01-09,01:30,9.062,272.81133333333338,83.188333333333304,-5.0203333333333342,-9999.0,-0.25100000000000006,-0.57399999999999995,4.33333333333333313E-003,-9999.0,279.90999999999991
2013-01-09,02:00,9.083,272.53800000000007,82.976333333333315,-5.3003333333333327,-9999.0,-0.28433333333333333,-0.66233333333333333,4.33333333333333313E-003,-9999.0,279.90999999999991
2013-01-09,02:30,9.104,272.39400000000001,82.464333333333329,-5.3756666666666666,-9999.0,-0.28066666666666668,-0.68100000000000016,1.00000000000000002E-003,-9999.0,279.90999999999991
2013-01-09,03:00,9.124,272.31066666666675,81.737000000000009,-4.9610000000000003,-9999.0,-0.21833333333333335,-0.57866666666666666,3.66666666666666616E-003,-9999.0,279.90999999999991
2013-01-09,03:30,9.145,272.05033333333336,81.003999999999991,-4.8966666666666665,-9999.0,-0.26333333333333331,-0.64333333333333331,3.66666666666666616E-003,-9999.0,279.90999999999991
2013-01-09,04:00,9.166,271.90933333333334,80.934333333333342,-5.6650000000000009,-9999.0,-0.14466666666666667,-1.0416666666666670,1.66666666666666677E-003,-9999.0,279.90999999999991
2013-01-09,04:30,9.187,271.89133333333336,81.183333333333351,-5.6756666666666664,-9999.0,-4.26666666666666722E-002,-1.1220000000000001,4.33333333333333227E-003,-9999.0,279.90999999999991
2013-01-09,05:00,9.208,271.84066666666672,81.474333333333362,-6.7219999999999986,-9999.0,0.14433333333333334,-2.1289999999999996,5.00000000000000010E-003,-9999.0,279.90999999999991
2013-01-09,05:30,9.229,271.59600000000006,82.034666666666652,-7.5663333333333318,-9999.0,0.40600000000000008,-2.8969999999999998,3.33333333333333311E-003,-9999.0,279.90999999999991
2013-01-09,06:00,9.249,271.39866666666671,82.533666666666662,-7.3963333333333328,-9999.0,0.38533333333333331,-2.5733333333333333,6.33333333333333404E-003,-9999.0,279.90999999999991
2013-01-09,06:30,9.270,271.48166666666668,80.999333333333340,-5.4806666666666661,-9999.0,4.86666666666666706E-002,-0.84133333333333327,3.33333333333333311E-003,-9999.0,279.90999999999991
2013-01-09,07:00,9.291,271.68533333333329,78.397333333333336,-5.2450000000000010,-9999.0,-0.13966666666666669,-0.63733333333333320,8.00000000000000190E-003,-9999.0,279.90999999999991
2013-01-09,07:30,9.312,271.64233333333340,77.259333333333331,-5.1846666666666676,-9999.0,-0.16666666666666666,-0.58733333333333326,0.12033333333333333,-9999.0,279.90999999999991
2013-01-09,08:00,9.333,271.45899999999995,80.377333333333326,-5.0710000000000006,-9.8249999999999993,3.93333333333333243E-002,0.75200000000000011,3.1463333333333328,-9999.0,279.90999999999991
2013-01-09,08:30,9.354,271.41766666666672,81.490000000000009,-5.1033333333333344,-9999.0,0.72200000000000009,3.2526666666666655,8.7330000000000023,-9999.0,279.90999999999991
2013-01-09,09:00,9.374,271.83900000000000,73.909666666666666,-5.4033333333333333,-9999.0,1.1996666666666667,5.6173333333333328,14.391333333333330,-9999.0,279.90999999999991
2013-01-09,09:30,9.395,271.85666666666668,68.282333333333327,-5.4783333333333335,-9999.0,2.3160000000000003,11.597000000000005,27.969666666666665,-9999.0,279.90999999999991
2013-01-09,10:00,9.416,271.63133333333343,68.198333333333323,-4.9656666666666656,-9999.0,4.2630000000000008,21.261666666666667,48.689000000000007,-9999.0,279.90999999999991
2013-01-09,10:30,9.437,271.34566666666672,70.103000000000009,-4.8903333333333316,-9999.0,6.9803333333333342,34.624666666666663,76.721666666666636,-9999.0,279.90999999999991
2013-01-09,11:00,9.458,271.25500000000005,68.136333333333340,-4.6746666666666679,-9999.0,13.754333333333332,67.201666666666668,142.15566666666663,-9999.0,279.90999999999991
2013-01-09,11:30,9.479,271.19199999999995,67.520333333333340,-4.5836666666666668,-9999.0,18.029666666666664,88.671333333333351,183.75166666666669,-9999.0,279.90999999999991
2013-01-09,12:00,9.499,271.25366666666662,66.653000000000006,-4.3153333333333332,-9999.0,33.148666666666664,166.94799999999998,329.38499999999999,-9999.0,279.90999999999991
2013-01-09,12:30,9.520,271.46833333333336,65.183999999999997,-4.4736666666666673,-9999.0,42.008333333333333,221.37733333333335,424.77166666666665,-9999.0,279.90999999999991
2013-01-09,13:00,9.541,271.71233333333333,64.174666666666653,-5.1936666666666671,-9999.0,38.870000000000005,209.79633333333334,405.15366666666665,-9999.0,279.90999999999991
2013-01-09,13:30,9.562,271.72166666666669,63.573666666666668,-4.8170000000000011,-9999.0,36.463666666666668,194.48399999999995,373.41000000000003,-9999.0,279.90999999999991
2013-01-09,14:00,9.583,271.94633333333337,62.753333333333323,-5.3339999999999996,-9999.0,34.533999999999992,183.55333333333334,353.05699999999996,-9999.0,279.90999999999991
2013-01-09,14:30,9.604,272.23866666666669,61.849333333333334,-6.3953333333333342,-9999.0,34.403999999999996,195.43599999999998,374.00800000000004,-9999.0,279.90999999999991
2013-01-09,15:00,9.624,272.20233333333334,62.556666666666665,-7.6019999999999985,-9999.0,22.077666666666669,131.60233333333335,257.60599999999999,-9999.0,279.90999999999991
2013-01-09,15:30,9.645,272.50266666666670,61.021000000000001,-9.4273684210526341,-9999.0,23.834000000000000,150.71500000000000,271.24299999999999,-9999.0,279.90999999999991
2013-01-09,16:00,9.666,272.50700000000006,60.415000000000006,-9.5499999999999989,-9999.0,12.917999999999999,76.522999999999982,140.77666666666667,-9999.0,279.90999999999991
2013-01-09,16:30,9.687,272.32766666666674,61.259333333333323,-9999.0,-9999.0,4.9323333333333332,20.222666666666662,46.348666666666674,-9999.0,279.90999999999991
2013-01-09,17:00,9.708,272.10500000000008,61.941333333333333,-9.8599999999999994,-9999.0,0.96899999999999997,-1.6616666666666668,4.2503333333333329,-9999.0,279.90999999999991
2013-01-09,17:30,9.729,271.83166666666671,63.201666666666675,-9.7541666666666647,-9999.0,0.55300000000000005,-3.6250000000000000,4.76666666666666766E-002,-9999.0,279.90999999999991
2013-01-09,18:00,9.749,271.54066666666671,63.891666666666673,-9.7444444444444454,-9999.0,0.56700000000000006,-3.6960000000000006,5.33333333333333402E-003,-9999.0,279.90999999999991
2013-01-09,18:30,9.770,271.29666666666674,65.001666666666651,-9.5406896551724145,-9999.0,0.55499999999999983,-3.4323333333333328,4.66666666666666619E-003,-9999.0,279.90999999999991
2013-01-09,19:00,9.791,271.03433333333334,65.955333333333343,-9.6541666666666668,-9999.0,0.52966666666666673,-3.5686666666666662,5.66666666666666707E-003,-9999.0,279.90999999999991
2013-01-09,19:30,9.812,270.63466666666665,67.559333333333328,-9999.0,-9999.0,0.55899999999999994,-3.8143333333333342,8.33333333333333495E-003,-9999.0,279.90999999999991
2013-01-09,20:00,9.833,270.16899999999998,70.168666666666681,-9.8600000000000012,-9999.0,0.50133333333333341,-3.6169999999999995,5.66666666666666794E-003,-9999.0,279.90999999999991
2013-01-09,20:30,9.854,269.85033333333342,71.482333333333330,-9.4760714285714300,-9999.0,0.54933333333333334,-3.3433333333333324,4.66666666666666705E-003,-9999.0,279.90999999999991
2013-01-09,21:00,9.874,269.59199999999998,71.798000000000002,-9.2343333333333302,-9999.0,0.52433333333333321,-3.2929999999999993,5.00000000000000097E-003,-9999.0,279.90999999999991
2013-01-09,21:30,9.895,269.34399999999994,72.005333333333311,-9.3683333333333323,-9999.0,0.51766666666666672,-3.2433333333333323,1.00000000000000019E-002,-9999.0,279.90999999999991
2013-01-09,22:00,9.916,269.09399999999999,72.135333333333321,-9.4119999999999990,-9999.0,0.52766666666666684,-3.2779999999999996,9.66666666666666716E-003,-9999.0,279.90999999999991
2013-01-09,22:30,9.937,268.84266666666673,72.361333333333320,-9.6530769230769220,-9999.0,0.53966666666666663,-3.2250000000000001,1.16666666666666689E-002,-9999.0,279.90999999999991
2013-01-09,23:00,9.958,268.63233333333335,73.182666666666663,-9999.0,-9999.0,0.36566666666666675,-3.3973333333333340,7.00000000000000188E-003,-9999.0,279.90999999999991
2013-01-09,23:30,9.979,268.27233333333322,75.446999999999989,-9999.0,-9999.0,3.26666666666666633E-002,-3.4270000000000000,1.16666666666666689E-002,-9999.0,279.90999999999991
2013-01-10,00:00,10.000,268.01633333333331,77.040333333333336,-9999.0,-9999.0,4.36666666666666661E-002,-3.2726666666666664,9.00000000000000105E-003,-9999.0,279.90999999999991
